Tracking 35280 objects as of 7-Sep-2026
HD Live streaming from Space Station
objects crossing your sky now

SOLRAD 11A

Track SOLRAD 11A now!
SOLRAD 11A is classified as:


NORAD ID: 8748
Int'l Code: 1976-023C
Launch date: March 15, 1976
Source: United States (US)
Launch site: AIR FORCE EASTERN TEST RANGE (AFETR)
Your satellite tracking list
Your tracking list is empty




NASA's NSSDC Master Catalog

Two Line Element Set (TLE):
1 08748U 76023C   26251.43274047 -.00000650  00000-0  00000-0 0  9994
2 08748  14.6928 358.6483 0070879 222.0411 356.2781  0.19673709  5626
Source of the keplerian elements: AFSPC